RYR91DJ EGPH-LPPR

Flight info

Callsign RYR91DJ
Flight time N/A
Altitude 24000
Route GOSAM P600 TRN/N0446F340 DCT BLACA DCT NELBO DCT NIMAT DCT TUVEN/M079F350 DCT TULTA/N0452F350 DCT KORUL DCT ELTEP/N0394F230 T328 ASPOR
Aircraft B738/M-SDE2E3FGHIRWXY/LB1

Departure

Time N/A
Airport Edinburgh Airport (EGPH)

Arrival

Time 2026-05-06 19:26
Airport Francisco de Sá Carneiro Airport (LPPR)
Time Latitude Longitude Altitude Speed Heading
2026-05-06 18:47 44.06289 -7.22820 34008 ft 435 kts 197°
2026-05-06 18:48 44.00467 -7.25110 34003 ft 434 kts 197°
2026-05-06 18:48 43.94653 -7.27393 34005 ft 433 kts 197°
2026-05-06 18:49 43.88854 -7.29665 34012 ft 433 kts 197°
2026-05-06 18:49 43.83062 -7.31929 34013 ft 432 kts 197°
2026-05-06 18:50 43.77271 -7.34189 34012 ft 432 kts 197°
2026-05-06 18:50 43.71481 -7.36443 34011 ft 431 kts 197°
2026-05-06 18:51 43.65706 -7.38688 34008 ft 431 kts 197°
2026-05-06 18:51 43.59932 -7.40927 34009 ft 431 kts 197°
2026-05-06 18:52 43.54190 -7.43150 34011 ft 431 kts 197°
2026-05-06 18:52 43.48415 -7.45381 34010 ft 431 kts 197°
2026-05-06 18:52 43.45517 -7.46499 33907 ft 434 kts 197°
2026-05-06 18:53 43.42603 -7.47622 33610 ft 435 kts 197°
2026-05-06 18:53 43.39691 -7.48743 33339 ft 433 kts 197°
2026-05-06 18:53 43.36799 -7.49855 33084 ft 432 kts 197°
2026-05-06 18:54 43.30993 -7.52084 33016 ft 434 kts 197°
2026-05-06 18:54 43.25175 -7.54315 32990 ft 433 kts 197°
2026-05-06 18:55 43.19412 -7.56518 32992 ft 428 kts 197°
2026-05-06 18:55 43.13733 -7.58686 32998 ft 425 kts 197°
2026-05-06 18:56 43.08051 -7.60852 33002 ft 423 kts 197°
2026-05-06 18:56 43.02384 -7.63007 32994 ft 423 kts 197°
2026-05-06 18:57 42.96714 -7.65159 32989 ft 423 kts 197°
2026-05-06 18:57 42.91027 -7.67314 32991 ft 424 kts 197°
2026-05-06 18:58 42.85322 -7.69472 32984 ft 426 kts 197°
2026-05-06 18:58 42.79600 -7.71631 32982 ft 427 kts 197°
2026-05-06 18:59 42.73910 -7.73775 32975 ft 427 kts 196°
2026-05-06 18:59 42.68170 -7.75934 32978 ft 428 kts 196°
2026-05-06 18:59 42.65290 -7.77015 32631 ft 430 kts 196°
2026-05-06 19:00 42.62430 -7.78087 32290 ft 421 kts 196°
2026-05-06 19:00 42.59627 -7.79137 31887 ft 414 kts 196°
2026-05-06 19:00 42.56867 -7.80172 31450 ft 409 kts 196°
2026-05-06 19:00 42.54135 -7.81195 31019 ft 405 kts 196°
2026-05-06 19:01 42.51428 -7.82209 30587 ft 400 kts 196°
2026-05-06 19:01 42.48756 -7.83209 30158 ft 397 kts 196°
2026-05-06 19:01 42.46079 -7.84211 29689 ft 401 kts 196°
2026-05-06 19:01 42.43374 -7.85222 29202 ft 402 kts 196°
2026-05-06 19:02 42.40697 -7.86221 28751 ft 397 kts 196°
2026-05-06 19:02 42.38079 -7.87197 28308 ft 392 kts 196°
2026-05-06 19:02 42.35463 -7.88172 27862 ft 387 kts 196°
2026-05-06 19:02 42.32870 -7.89137 27410 ft 384 kts 196°
2026-05-06 19:03 42.30306 -7.90091 26972 ft 381 kts 196°
2026-05-06 19:03 42.27745 -7.91043 26550 ft 383 kts 196°
2026-05-06 19:03 42.25161 -7.92003 26117 ft 386 kts 196°
2026-05-06 19:03 42.22576 -7.92963 25672 ft 383 kts 196°
2026-05-06 19:04 42.20019 -7.93911 25243 ft 380 kts 196°
2026-05-06 19:04 42.17479 -7.94852 24814 ft 376 kts 196°
2026-05-06 19:04 42.14965 -7.95782 24381 ft 373 kts 196°
2026-05-06 19:04 42.12498 -7.96694 23965 ft 371 kts 196°
2026-05-06 19:05 42.10009 -7.97614 23552 ft 371 kts 196°
2026-05-06 19:05 42.07514 -7.98536 23051 ft 370 kts 196°
2026-05-06 19:05 42.05038 -7.99449 22593 ft 367 kts 196°
2026-05-06 19:05 42.02591 -8.00351 22158 ft 363 kts 196°
2026-05-06 19:06 42.00164 -8.01245 21753 ft 359 kts 196°
2026-05-06 19:06 41.97767 -8.02128 21330 ft 356 kts 196°
2026-05-06 19:06 41.95386 -8.03003 20934 ft 354 kts 196°
2026-05-06 19:06 41.93012 -8.03876 20519 ft 353 kts 196°
2026-05-06 19:07 41.90640 -8.04748 20117 ft 352 kts 195°
2026-05-06 19:07 41.88303 -8.05606 19721 ft 353 kts 195°
2026-05-06 19:07 41.85931 -8.06476 19316 ft 353 kts 195°
2026-05-06 19:07 41.83563 -8.07343 18915 ft 351 kts 195°
2026-05-06 19:08 41.81232 -8.08257 18494 ft 348 kts 201°
2026-05-06 19:08 41.79064 -8.09732 17886 ft 351 kts 211°
2026-05-06 19:08 41.76975 -8.11414 17418 ft 348 kts 211°
2026-05-06 19:08 41.74888 -8.13051 16993 ft 345 kts 210°
2026-05-06 19:09 41.72814 -8.14631 16586 ft 342 kts 209°
2026-05-06 19:09 41.70748 -8.16182 16186 ft 339 kts 208°
2026-05-06 19:09 41.68610 -8.17485 15791 ft 336 kts 200°
2026-05-06 19:09 41.66408 -8.18496 15408 ft 333 kts 198°
2026-05-06 19:10 41.64208 -8.19433 15026 ft 330 kts 198°
2026-05-06 19:10 41.62026 -8.20366 14654 ft 327 kts 198°
2026-05-06 19:10 41.59866 -8.21310 14278 ft 325 kts 199°
2026-05-06 19:10 41.57727 -8.22263 13915 ft 323 kts 199°
2026-05-06 19:11 41.55602 -8.23221 13522 ft 322 kts 199°
2026-05-06 19:11 41.53516 -8.24168 13117 ft 319 kts 199°
2026-05-06 19:11 41.51417 -8.25123 12736 ft 317 kts 199°
2026-05-06 19:11 41.49336 -8.26072 12359 ft 315 kts 199°
2026-05-06 19:12 41.47260 -8.27018 11998 ft 316 kts 199°
2026-05-06 19:12 41.45176 -8.27967 11639 ft 315 kts 199°
2026-05-06 19:12 41.43116 -8.28904 11275 ft 312 kts 199°
2026-05-06 19:12 41.41070 -8.29834 10912 ft 309 kts 198°
2026-05-06 19:13 41.39033 -8.30759 10559 ft 307 kts 198°
2026-05-06 19:13 41.37059 -8.31654 10393 ft 298 kts 198°
2026-05-06 19:13 41.35114 -8.32536 10257 ft 290 kts 198°
2026-05-06 19:13 41.33235 -8.33389 10137 ft 281 kts 198°
2026-05-06 19:14 41.31413 -8.34214 10011 ft 273 kts 198°
2026-05-06 19:14 41.29642 -8.35016 9857 ft 267 kts 198°
2026-05-06 19:14 41.27895 -8.35807 9595 ft 264 kts 198°
2026-05-06 19:14 41.26160 -8.36591 9308 ft 262 kts 198°
2026-05-06 19:15 41.24440 -8.37369 9036 ft 260 kts 197°
2026-05-06 19:15 41.22732 -8.38140 8748 ft 258 kts 198°
2026-05-06 19:15 41.21037 -8.38906 8490 ft 257 kts 198°
2026-05-06 19:15 41.19331 -8.39675 8218 ft 262 kts 198°
2026-05-06 19:16 41.17604 -8.40454 7948 ft 261 kts 198°
2026-05-06 19:16 41.15889 -8.41228 7673 ft 260 kts 198°
2026-05-06 19:16 41.14181 -8.41997 7396 ft 259 kts 198°
2026-05-06 19:16 41.12498 -8.42756 7118 ft 258 kts 198°
2026-05-06 19:17 41.10780 -8.43529 6847 ft 257 kts 198°
2026-05-06 19:17 41.09099 -8.44286 6582 ft 260 kts 198°
2026-05-06 19:17 41.07380 -8.45059 6321 ft 261 kts 199°
2026-05-06 19:17 41.05662 -8.45831 6029 ft 260 kts 199°
2026-05-06 19:18 41.03950 -8.46600 5749 ft 259 kts 199°
2026-05-06 19:18 41.02248 -8.47366 5484 ft 258 kts 200°
2026-05-06 19:18 41.00751 -8.48624 5227 ft 257 kts 231°
2026-05-06 19:18 40.99930 -8.50699 5109 ft 254 kts 255°
2026-05-06 19:19 40.99547 -8.52939 5003 ft 246 kts 261°
2026-05-06 19:19 40.99243 -8.55128 4896 ft 238 kts 261°
2026-05-06 19:19 40.98946 -8.57254 4787 ft 231 kts 262°
2026-05-06 19:19 40.98992 -8.59296 4685 ft 215 kts 293°
2026-05-06 19:20 40.99764 -8.60837 4570 ft 198 kts 319°
2026-05-06 19:20 41.00898 -8.61792 4350 ft 192 kts 341°
2026-05-06 19:20 41.02176 -8.62200 4147 ft 187 kts 349°
2026-05-06 19:20 41.03441 -8.62533 3937 ft 185 kts 349°
2026-05-06 19:21 41.04703 -8.62868 3726 ft 183 kts 349°
2026-05-06 19:21 41.05950 -8.63199 3531 ft 182 kts 349°
2026-05-06 19:21 41.07188 -8.63522 3344 ft 181 kts 349°
2026-05-06 19:21 41.08427 -8.63844 3115 ft 180 kts 349°
2026-05-06 19:22 41.09613 -8.64153 2951 ft 168 kts 349°
2026-05-06 19:22 41.10727 -8.64443 2753 ft 157 kts 349°
2026-05-06 19:22 41.11785 -8.64718 2563 ft 157 kts 349°
2026-05-06 19:22 41.12855 -8.64998 2339 ft 154 kts 349°
2026-05-06 19:23 41.13891 -8.65268 2152 ft 150 kts 349°
2026-05-06 19:23 41.14921 -8.65537 1951 ft 151 kts 349°
2026-05-06 19:23 41.15920 -8.65798 1752 ft 143 kts 349°
2026-05-06 19:23 41.16859 -8.66043 1588 ft 136 kts 349°
2026-05-06 19:24 41.17768 -8.66281 1411 ft 131 kts 350°
2026-05-06 19:24 41.18646 -8.66510 1220 ft 128 kts 348°
2026-05-06 19:24 41.19526 -8.66741 1071 ft 130 kts 348°
2026-05-06 19:24 41.20413 -8.66973 898 ft 131 kts 348°
2026-05-06 19:25 41.21314 -8.67212 719 ft 133 kts 348°
2026-05-06 19:25 41.22213 -8.67446 536 ft 129 kts 347°
2026-05-06 19:25 41.23083 -8.67673 334 ft 126 kts 347°
2026-05-06 19:25 41.23915 -8.67892 224 ft 113 kts 345°
2026-05-06 19:26 41.24570 -8.68064 216 ft 75 kts 349°
2026-05-06 19:26 41.24931 -8.68158 194 ft 31 kts 349°
2026-05-06 19:26 41.25120 -8.68167 184 ft 26 kts 10°
2026-05-06 19:26 41.25274 -8.68105 178 ft 16 kts 26°
2026-05-06 19:27 41.25259 -8.68013 181 ft 13 kts 164°
2026-05-06 19:27 41.25171 -8.67987 187 ft 13 kts 167°
2026-05-06 19:27 41.25086 -8.67964 197 ft 12 kts 172°
2026-05-06 19:27 41.25002 -8.67945 201 ft 12 kts 169°
2026-05-06 19:28 41.24921 -8.67924 195 ft 12 kts 168°
2026-05-06 19:28 41.24846 -8.67887 210 ft 11 kts 151°
2026-05-06 19:28 41.24777 -8.67836 210 ft 11 kts 156°
2026-05-06 19:28 41.24703 -8.67812 212 ft 11 kts 168°
2026-05-06 19:29 41.24631 -8.67792 212 ft 10 kts 168°
2026-05-06 19:29 41.24584 -8.67780 216 ft 10 kts 169°
2026-05-06 19:29 41.24491 -8.67757 219 ft 10 kts 169°
2026-05-06 19:29 41.24422 -8.67739 223 ft 11 kts 169°
2026-05-06 19:30 41.24336 -8.67716 228 ft 14 kts 164°
2026-05-06 19:30 41.24260 -8.67630 234 ft 16 kts 126°
2026-05-06 19:30 41.24226 -8.67583 236 ft 8 kts 155°
2026-05-06 19:30 41.24124 -8.67554 237 ft 19 kts 169°
2026-05-06 19:31 41.23996 -8.67522 237 ft 18 kts 169°
2026-05-06 19:31 41.23873 -8.67488 238 ft 18 kts 168°
2026-05-06 19:31 41.23637 -8.67427 237 ft 18 kts 169°
2026-05-06 19:32 41.23552 -8.67404 238 ft 19 kts 169°
2026-05-06 19:32 41.23423 -8.67372 238 ft 18 kts 169°
2026-05-06 19:32 41.23368 -8.67288 241 ft 5 kts 106°
2026-05-06 19:32 41.23381 -8.67246 243 ft 5 kts 51°
2026-05-06 19:33 41.23406 -8.67210 244 ft 4 kts 48°
2026-05-06 19:33 41.23415 -8.67196 244 ft 1 kts 48°
2026-05-06 19:33 41.23416 -8.67195 244 ft 0 kts 48°